sat.trackr.live / text

‹ back to catalog

BEIDOU-2 IGSO-7 (C16)

NORAD 43539 · 2018-057A

PAYLOAD ACTIVE UNKNOWN

§ Identity

Operator
Country
PRC
Launch date
2018-07-09
Launch site
XICLF
Launch vehicle
Mass (kg)
RCS (m²)

Purposes: comms, nav

External: N2YO · Heavens-Above · Gunter

§ Orbital elements

Epoch: 2026-09-07T18:04:47.218656Z

Period
1,435.99 min
Inclination
55.2125°
Eccentricity
0.0108318
Mean motion
1.00278991 rev/d
Perigee alt
35,327.9 km
Apogee alt
36,241.3 km
Semi-major
42,162.7 km
B*
0.0000e+0
RAAN
162.3571°
Arg perigee
236.8884°
Mean anomaly
331.2466°
Rev number
2,995

§ Raw data

BEIDOU-2 IGSO-7 (C16)1 43539U 18057A   26250.75332429 -.00000185  00000+0  00000+0 0  99982 43539  55.2125 162.3571 0108318 236.8884 331.2466  1.00278991 29958

JSON: /api/v1/satellites/43539 · /tle

For live sub-satellite position, see the globe view (requires WebGL).

§ Visibility from observer

Set your observer location to see the next 7 days of passes ≥ 10°. The values pass through the URL so the page stays shareable.

No JS? Fill the form by hand. The geolocation button needs JavaScript.